Location: Shenandoah County Park
(38.9356°N, 78.4524°W)
Time: 21:56:22
(UTC-05:00)

SR - Visible Passes

Search period start: 30 November 2023 00:00
Search period end: 10 December 2023 00:00
Orbit: 571 x 872 km, 66.7° (Epoch: 30 November)

Date Brightness Start Highest point End Pass type
(mag) Time Alt. Az. Time Alt. Az. Time Alt. Az.
05 Dec ? 18:37:37 10° NNE 18:37:59 11° NNE 18:37:59 11° NNE visible
06 Dec ? 19:26:23 10° NNW 19:27:27 15° N 19:27:27 15° N visible
07 Dec ? 18:35:28 10° N 18:37:43 17° NNE 18:37:43 17° NNE visible
07 Dec ? 20:16:30 10° NNW 20:17:01 13° NNW 20:17:01 13° NNW visible
08 Dec ? 17:45:30 10° NNE 17:47:18 11° NE 17:48:05 11° NE visible
08 Dec ? 19:24:57 10° NNW 19:27:25 25° NNW 19:27:25 25° NNW visible
09 Dec ? 18:33:45 10° N 18:37:58 29° NE 18:37:58 29° NE visible
09 Dec ? 20:15:34 10° NW 20:17:19 19° NW 20:17:19 19° NW visible
